Regional Weather Roundup
Issued by NWS

Home | Current Version | Previous Version | Text Only | Print | Product List | Glossary On
Versions: 1 2 3 4 5 6 7 8 9 10 11 12 13 14 15 16 17 18 19 20 21 22 23 24 25 26 27 28 29 30 31 32 33 34 35 36 37 38 39 40 41 42 43 44 45 46 47 48 49 50
000
ASUS46 KPQR 201610
RWROR

OREGON REGIONAL WEATHER ROUNDUP
NATIONAL WEATHER SERVICE PORTLAND OR
900 AM PDT SAT SEP 20 2014

NOTE: "FAIR" INDICATES FEW OR NO CLOUDS BELOW 12,000 FEET WITH
NO SIGNIFICANT WEATHER AND/OR OBSTRUCTIONS TO VISIBILITY.

ORZ001>013-201700-
NORTHWEST OREGON


CITY           SKY/WX    TMP DP  RH WIND       PRES   REMARKS
ASTORIA        SUNNY     63  60  90 NE12      29.99F
NEWPORT        SUNNY     63  61  94 NE6       29.96F
PORTLAND       SUNNY     63  58  83 NW5       30.00S
VANCOUVER WA   SUNNY     63  56  78 NW8       29.99F
SCAPPOOSE      SUNNY     67  57  70 N7        29.99F
HILLSBORO      SUNNY     62  58  86 CALM      29.99F
AURORA         SUNNY     63  58  83 N10       29.98F
MCMINNVILLE    SUNNY     66  58  75 N7        29.98F
SALEM          MOSUNNY   63  57  81 NE8       29.97F
CORVALLIS      SUNNY     63  57  82 CALM      29.99S
EUGENE         PTSUNNY   62  57  83 N9        29.97F
$$

ORZ021-028-201700-
SOUTHWEST OREGON


CITY           SKY/WX    TMP DP  RH WIND       PRES   REMARKS
NORTH BEND     SUNNY     61  61 100 NW3       29.90S
BROOKINGS      SUNNY     63  58  83 S7        29.89R
ROSEBURG       SUNNY     61  50  67 CALM      29.96F
SEXTON SUMMIT  SUNNY     70  46  42 E12       30.05S
MEDFORD        SUNNY     63  52  67 CALM      29.98S
$$

ORZ009-041-201700-
COLUMBIA GORGE


CITY           SKY/WX    TMP DP  RH WIND       PRES   REMARKS
TROUTDALE      SUNNY     63  57  81 W3        29.98F
THE DALLES     SUNNY     63  52  67 CALM      30.10R
$$

ORZ029>031-042>050-061>064-201700-
EASTERN OREGON


CITY           SKY/WX    TMP DP  RH WIND       PRES   REMARKS
REDMOND        SUNNY     58  43  57 S3        30.15R
BEND           SUNNY     63  46  55 CALM      30.17S
KLAMATH FALLS  SUNNY     64  48  56 N8        30.13S
LAKEVIEW       SUNNY     66  43  42 N8        30.17F
HERMISTON      SUNNY     66  48  52 CALM      30.10R
PENDLETON      SUNNY     63  44  50 CALM      30.11S
JOHN DAY       SUNNY     60  43  52 SE7       30.18F
MEACHAM        SUNNY     56  42  59 CALM      30.18F
LA GRANDE      SUNNY     57  37  47 NE5       30.17F
BAKER CITY     SUNNY     60  45  57 SW5       30.18S
BURNS          SUNNY     62  42  47 CALM      30.20S
ROME             N/A     63  39  41 VRB3      30.18S
ONTARIO        SUNNY     68  46  45 W5        30.13R
$$


USA.gov is the U.S. government's official web portal to all federal, state and local government web resources and services.